Regional Weather Roundup
Issued by NWS

Home | Current Version | Previous Version | Text Only | Print | Product List | Glossary On
Versions: 1 2 3 4 5 6 7 8 9 10 11 12 13 14 15 16 17 18 19 20 21 22 23 24 25 26 27 28 29 30 31 32 33 34 35 36 37 38 39 40 41 42 43 44 45 46 47 48 49 50
000
ASUS43 KDTX 211101
RWRMI
MICHIGAN HOURLY REGIONAL WEATHER ROUNDUP
NATIONAL WEATHER SERVICE DETROIT/PONTIAC MI
700 AM EDT THU SEP 21 2017

NOTE: "FAIR" INDICATES FEW OR NO CLOUDS BELOW 12,000 FEET WITH NO
SIGNIFICANT WEATHER AND/OR OBSTRUCTION TO VISIBILITY.

MIZ047>049-052>055-059>063-066>070-074>076-081>083-211200-
SOUTHEAST LOWER MICHIGAN

CITY           SKY/WX    TMP DP  RH WIND       PRES   REMARKS
ADRIAN         CLEAR     66  64  93 SW3       30.07R FOG
ALMA           PTCLDY    69  65  89 SW8       30.01S
ANN ARBOR      PTCLDY    65  65 100 CALM      30.06R FOG
BAD AXE        CLOUDY    68  63  82 SE7       30.06R
CARO           PTCLDY    68  63  84 SE3       30.03R
DETROIT CITY   PTCLDY    68  66  93 SE3       30.06S
DETROIT        CLOUDY    69  67  93 SE3       30.06S FOG
FLINT          PTCLDY    68  64  87 S8        30.04R
GROSSE ILE     MOCLDY    70  68  93 S6        30.05S
HILLSDALE      MOCLDY    66  64  94 CALM      30.06R FOG
HOWELL         CLOUDY    67  65  92 SE5       30.05R

CITY           SKY/WX    TMP DP  RH WIND       PRES   REMARKS
JACKSON        PTCLDY    69  66  90 S5        30.05R FOG
LAMBERTVILLE   CLEAR     66  64  92 CALM      30.06R FOG
LANSING        CLOUDY    69  65  86 CALM      30.03R
LAPEER         FAIR      66  64  91 CALM      30.06R
MASON          CLOUDY    69  66  90 SE7       30.04R
MONROE         MOCLDY    69  67  93 S3        30.05S FOG
MT. CLEMENS    CLEAR     67  67 100 E6        30.05S
PONTIAC        CLOUDY    68  66  93 SE3       30.05S
PORT HURON     CLOUDY    66  64  94 CALM      30.08R FOG
TRI CITIES     PTCLDY    70  67  90 S8        30.02R
MIDLAND        FAIR      68  64  88 CALM      30.01R
TROY           CLOUDY    67  65  93 CALM      30.07S
SAGINAW HB     CLOUDY    68  64  88 S5        30.02R
$$
MIZ043>046-050>051-056>058-064>065-071>073-077>080-211200-
SOUTHWEST LOWER MICHIGAN

CITY           SKY/WX    TMP DP  RH WIND       PRES   REMARKS
BATTLE CREEK   PTCLDY    71  68  90 S9        30.04R
BENTON HARBOR  CLEAR     72  67  84 S6        30.00R
BIG RAPIDS     MOCLDY    67  65  94 N7        30.01R FOG
COLDWATER      CLOUDY    70  70 100 S3        30.06R FOG
FREMONT        FAIR      69  69 100 CALM      29.98R
HOLLAND        CLOUDY    71  67  87 S3        29.99R
GRAND RAPIDS   MOCLDY    69  67  93 S6        30.00R
IONIA          FAIR      69  67  92 S5        30.01R
KALAMAZOO      PTCLDY    70  66  87 S6        30.03R FOG
LUDINGTON      PTCLDY    65  62  93 CALM      29.99R
MARSHALL       CLOUDY    70  69  98 S3        30.04R
MOUNT PLEASANT PTCLDY    67  64  92 E3        30.00R
MUSKEGON       CLOUDY    72  68  87 SE8       29.97R
SOUTH HAVEN    CLEAR     72  68  89 S3        29.99S
$$
MIZ016>042-211200-
NORTHERN LOWER MICHIGAN

CITY           SKY/WX    TMP DP  RH WIND       PRES   REMARKS
ALPENA         MOCLDY    67  67 100 SE6       30.04R
BEAVER ISLAND  CLOUDY    66  66  98 E5        30.00R
BELLAIRE       CLOUDY    66  64  94 N3        30.00R
CADILLAC       CLOUDY    68  64  86 NE3       30.03R
CHARLEVOIX     MOCLDY    68  68 100 SE5       30.03R
FRANKFORT      PTCLDY    67  67 100 CALM      29.98R
GAYLORD        PTCLDY    65  62  90 S5        30.05R
GRAYLING       CLOUDY    67  64  88 CALM      30.04R
HARBOR SPRINGS CLOUDY    67  65  94 NE7       30.01R
HOUGHTON LAKE  PTCLDY    65  63  93 SE5       30.04R
MANISTEE       CLOUDY    65  64  97 CALM      29.98R
OSCODA         CLOUDY    68  67  99 W5        30.03R
PELLSTON       CLOUDY    67  66  97 S3        30.02R
ROGERS CITY    PTCLDY    69  66  90 S6        30.02R
TRAVERSE CITY  CLOUDY    72  65  78 VRB3      29.97R
$$
MIZ007>008-015-211200-
EASTERN UPPER MICHIGAN

CITY           SKY/WX    TMP DP  RH WIND       PRES   REMARKS
KINROSS        CLOUDY    66  65  96 CALM      30.00F
MACKINAC ISLAN CLOUDY    68  68 100 S7        30.00R
NEWBERRY       FOG       64  63  97 CALM      30.01R VSB 1/2
S. S. MARIE    MOCLDY    67  66  97 CALM      29.99F
MUNISING         N/A     62  62 100 N8        30.01R
$$
MIZ004>006-011>014-085-211200-
CENTRAL UPPER MICHIGAN

CITY           SKY/WX    TMP DP  RH WIND       PRES   REMARKS
MANISTIQUE     CLOUDY    65  59  81 N7        30.01R
ESCANABA       CLEAR     62  61  96 N5        30.01R
MENOMINEE      CLOUDY    66  64  93 NE7       30.01R
SAWYER-GWINN   CLEAR     59  57  94 N9        30.03R
$$
MIZ001>003-009>011-084-211200-
WESTERN UPPER MICHIGAN

CITY           SKY/WX    TMP DP  RH WIND       PRES   REMARKS
IRON MOUNTAIN  FOG       57  54  89 CALM      30.02R VSB 3/4
HOUGHTON       CLEAR     46  44  93 N3        30.04R FOG
COPPER HARBOR    N/A     57  56  96 CALM      30.04R
IRONWOOD       PTCLDY    41  41 100 CALM      30.05S FOG
$$

ABBREVIATIONS USED IN REMARKS
   TC - TEMPERATURE IN CELSIUS
  WCI - WIND CHILL INDEX
   HX - HEAT INDEX
  VSB - VISIBILITY





USA.gov is the U.S. government's official web portal to all federal, state and local government web resources and services.